[[{"header":{"parameterUnit":"m.s-1","parameterCategory":1,"la1":30.2991,"la2":30.254,"lo1":-89.0895,"lo2":-89.0444,"dy":0.0017,"dx":0.0017,"nx":28,"ny":28,"refTime":"2023-08-15T09:00:00:Z","depth":0,"parameterNumber":2,"parameterNumberName":"U-component_of_WINDS"},"data":[0,0,0,0,0,0,0,0,0,0,0,0,0,0,0,0,0,0,0,0,0,0,0,0,0,0,0,0,0,0,0,0,0,0,0,0,0,0,0,0,0,0,0,0,0,0,0,0,0,0,0,0,0,0,0,0,0,0,5.5777,5.5779,0,5.5977,5.5979,5.5982,5.5945,5.5941,5.5938,5.5934,5.6142,5.6151,5.616,0,0,0,0,0,0,0,0,0,0,0,0,0,5.5366,5.5374,5.5777,5.5779,5.5782,5.5977,5.598,5.5982,5.5946,5.5941,5.5937,5.5933,5.6139,5.615,5.616,0,0,0,0,0,0,0,0,0,0,0,0,0,5.5553,5.5376,5.5776,5.5787,5.579,5.5976,5.598,5.5983,5.5947,5.5941,5.5936,5.5931,5.6136,5.6149,5.6162,5.6351,0,0,5.6202,5.6208,0,0,0,0,0,0,0,0,5.5542,5.5568,5.5783,5.5787,5.579,5.5931,5.5911,5.6106,5.5948,5.5887,5.5934,5.5928,5.6076,5.6094,5.6144,5.6361,5.637,5.6204,5.6212,5.6217,5.6221,0,0,0,0,0,0,0,5.553,5.5559,5.5856,5.5786,5.5791,5.5783,5.5803,5.5948,5.6009,5.5892,5.589,5.5914,5.6077,5.6131,5.6148,5.6373,5.6203,5.6215,5.6223,5.6228,5.6756,5.6762,0,0,0,0,0,0,5.5513,5.5549,5.585,5.5862,5.5651,5.5794,5.5818,5.5891,5.6008,5.602,5.5918,5.5911,5.6111,5.6133,5.6155,5.6385,5.6217,5.623,5.6237,5.675,5.6758,5.6764,0,0,0,0,0,0,5.5504,5.554,5.5842,5.5705,5.5743,5.5807,5.589,5.5898,5.5951,5.6027,5.6039,5.5961,5.6107,5.6137,5.6303,5.6392,5.6236,5.6248,5.6743,5.6753,5.6761,5.6845,0,0,0,0,0,0,5.5492,5.5537,5.5609,5.5707,5.575,5.5985,5.5895,5.5905,5.5974,5.5967,5.6071,5.6083,5.6105,5.6283,5.6316,5.6407,5.6258,5.6735,5.6747,5.6758,5.6835,5.6856,5.6874,0,0,0,0,0,5.5478,5.5625,5.5613,5.5649,5.5841,5.599,5.6015,5.6037,5.5981,5.6054,5.6104,5.608,5.6377,5.63,5.6337,5.6434,5.673,5.6744,5.6757,5.6826,5.6852,5.6874,0,0,0,0,0,0,5.5536,5.5638,5.5625,5.5808,5.5891,5.5983,5.6076,5.6064,5.6164,5.6154,5.6177,5.6201,5.637,5.6419,5.6332,5.6623,5.6546,5.6567,5.6585,5.6611,5.663,5.6615,5.6269,0,0,0,0,0,5.557,5.5682,5.5765,5.5919,5.5961,5.6012,5.6077,5.6087,5.6174,5.6209,5.627,5.6356,5.6469,5.6542,5.665,5.6842,5.6865,5.6927,5.6946,5.6962,5.6981,5.7086,5.7115,5.6809,5.6809,5.6809,0,0,5.5642,5.5711,5.578,5.5932,5.5997,5.6113,5.6041,5.6167,5.6253,5.6228,5.6388,5.6437,5.6534,5.6714,5.6797,5.676,5.707,5.6979,5.6992,5.7002,5.7103,5.7132,5.7158,5.6818,5.6817,5.6815,0,0,5.5832,5.5895,5.603,5.6097,5.6196,5.6229,5.6262,5.6357,5.6388,5.6549,5.6533,5.6637,5.683,5.6901,5.6962,5.718,5.7162,5.7215,5.7318,5.7421,5.7445,5.7466,5.7544,5.7572,5.7233,5.7233,5.7233,0,5.5909,5.6082,5.6102,5.6229,5.6297,5.6279,5.6417,5.6481,5.6611,5.6658,5.6615,5.6858,5.6922,5.7119,5.7172,5.7222,5.7261,5.7203,5.7439,5.7461,5.7482,5.7557,5.7586,5.7239,5.7238,5.7237,5.7237,0,5.6172,5.6292,5.639,5.6515,5.6594,5.6726,5.6766,5.6844,5.6847,5.6885,5.7051,5.7127,5.7251,5.7298,5.7303,5.7496,5.747,5.7433,5.7356,5.7516,5.7587,5.7616,5.7247,5.7245,5.7243,5.7242,0,0,5.6403,5.6538,5.6574,5.6631,5.6739,5.6833,5.6965,5.7085,5.7152,5.7242,5.7354,5.7518,5.7485,5.7555,5.7567,5.7658,5.7826,5.761,5.7612,5.7647,5.8045,5.8072,5.8104,5.7815,5.7821,5.7825,5.8036,0,5.6604,5.6835,5.6857,5.7065,5.7178,5.7163,5.7278,5.7357,5.7397,5.7499,5.7543,5.7659,5.7606,5.7648,5.7736,5.7787,5.7906,5.7772,5.792,5.7925,5.7896,5.8141,5.8171,5.8366,5.8064,5.8069,5.8072,0,5.6868,5.6966,5.7185,5.7278,5.7326,5.7429,5.7541,5.7638,5.7729,5.7752,5.783,5.7831,5.7968,5.7885,5.8075,5.7983,5.8045,5.8079,5.8088,5.8102,5.8008,5.8163,5.8429,5.8458,5.8116,5.8113,5.8109,0,5.7016,5.7202,5.7357,5.7406,5.7519,5.7592,5.7643,5.7728,5.7799,5.7898,5.7944,5.8058,5.812,5.8209,5.8241,5.8177,5.843,5.8349,5.8453,5.8452,5.8507,5.8503,5.8786,5.8547,5.8546,5.8546,5.8545,0,5.7237,5.7372,5.7425,5.7521,5.7671,5.7696,5.7845,5.7892,5.7969,5.8074,5.8068,5.8168,5.8204,5.831,5.8336,5.8489,5.8518,5.854,5.8546,5.8541,5.8538,5.8582,5.8569,5.8554,5.8552,5.855,5.8549,0,5.7427,5.7468,5.7636,5.773,5.7756,5.7864,5.7944,5.8037,5.8075,5.8208,5.8241,5.8301,5.8425,5.8466,5.8617,5.8634,5.8814,5.8807,5.8783,5.8783,5.8885,5.8875,5.9207,5.9252,5.8982,5.8985,5.8987,0,5.7566,5.7669,5.7773,5.7843,5.7896,5.8009,5.8081,5.811,5.8185,5.8297,5.8377,5.85,5.8599,5.8799,5.8857,5.8972,5.8968,5.9077,5.8986,5.8978,5.897,5.8964,5.8975,5.9094,5.9096,5.9099,5.9101,0,5.7808,5.7823,5.7927,5.8039,5.8125,5.8214,5.8301,5.8359,5.84,5.8486,5.8612,5.869,5.8843,5.8965,5.9083,5.9136,5.9127,5.9129,5.9159,5.9155,5.9137,5.9148,5.8829,5.9121,5.9119,5.9118,5.9116,5.9116,5.7977,5.8068,5.8155,5.8272,5.834,5.8421,5.8513,5.8562,5.8668,5.8794,5.8805,5.8942,5.9031,5.9188,5.9247,5.9355,5.9325,5.9368,5.9379,5.939,5.9398,5.912,5.9377,5.9376,5.9376,5.9375,5.9375,0,5.8218,5.8274,5.8381,5.8502,5.8593,5.8575,5.867,5.8748,5.8868,5.8952,5.905,5.9196,5.9315,5.9382,5.9501,5.9575,5.9573,5.9605,5.96,5.9613,5.9418,5.938,5.9604,5.9604,5.9604,5.9604,5.9604,5.9604,5.8355,5.8508,5.8534,5.8722,5.8777,5.891,5.8966,5.9041,5.9108,5.927,5.9369,5.9412,5.9489,5.9614,5.9723,5.974,5.9784,5.9819,5.9833,5.965,5.9626,5.9604,5.9568,5.9829,5.9829,6.0019,6.0021,6.0022]},{"header":{"parameterUnit":"m.s-1","parameterCategory":1,"la1":30.2991,"la2":30.254,"lo1":-89.0895,"lo2":-89.0444,"dy":0.0017,"dx":0.0017,"nx":28,"ny":28,"refTime":"2023-08-15T09:00:00:Z","depth":0,"parameterNumber":3,"parameterNumberName":"V-component_of_WINDS"},"data":[0,0,0,0,0,0,0,0,0,0,0,0,0,0,0,0,0,0,0,0,0,0,0,0,0,0,0,0,0,0,0,0,0,0,0,0,0,0,0,0,0,0,0,0,0,0,0,0,0,0,0,0,0,0,0,0,0,0,-1.3333,-1.3333,0,-1.3338,-1.3338,-1.3338,-1.3321,-1.3321,-1.332,-1.332,-1.3324,-1.3325,-1.3325,0,0,0,0,0,0,0,0,0,0,0,0,0,-1.3308,-1.3309,-1.3333,-1.3333,-1.3333,-1.3338,-1.3338,-1.3338,-1.3321,-1.3321,-1.332,-1.3319,-1.3324,-1.3325,-1.3326,0,0,0,0,0,0,0,0,0,0,0,0,0,-1.3317,-1.3309,-1.3333,-1.3325,-1.3324,-1.3338,-1.3338,-1.3338,-1.3321,-1.3321,-1.332,-1.3319,-1.3324,-1.3325,-1.3326,-1.3346,0,0,-1.3328,-1.3329,0,0,0,0,0,0,0,0,-1.3316,-1.3318,-1.3326,-1.3326,-1.3325,-1.3328,-1.3331,-1.3341,-1.3321,-1.3322,-1.332,-1.3319,-1.3326,-1.3327,-1.3329,-1.3346,-1.3347,-1.3328,-1.3329,-1.3329,-1.333,0,0,0,0,0,0,0,-1.3316,-1.3317,-1.3335,-1.3326,-1.3326,-1.3321,-1.3322,-1.3333,-1.3328,-1.3322,-1.3321,-1.3322,-1.3326,-1.3329,-1.3329,-1.3347,-1.3328,-1.3329,-1.333,-1.333,-1.3381,-1.3382,0,0,0,0,0,0,-1.3316,-1.3317,-1.3334,-1.3335,-1.3319,-1.3322,-1.3323,-1.3328,-1.3328,-1.3328,-1.3323,-1.3321,-1.3327,-1.3328,-1.3329,-1.3353,-1.3329,-1.333,-1.3331,-1.338,-1.3381,-1.3382,0,0,0,0,0,0,-1.3316,-1.3318,-1.3334,-1.3325,-1.3327,-1.3324,-1.3329,-1.3328,-1.3331,-1.3328,-1.3328,-1.3326,-1.3327,-1.3328,-1.3342,-1.3353,-1.3331,-1.3331,-1.3379,-1.338,-1.3382,-1.3401,0,0,0,0,0,0,-1.3315,-1.3318,-1.3326,-1.3326,-1.3328,-1.3347,-1.333,-1.3329,-1.3333,-1.3331,-1.3332,-1.3331,-1.3326,-1.3341,-1.3343,-1.3354,-1.3332,-1.3378,-1.338,-1.3381,-1.34,-1.3403,-1.3406,0,0,0,0,0,-1.3314,-1.3331,-1.3326,-1.3328,-1.3337,-1.3348,-1.3349,-1.3343,-1.3334,-1.3341,-1.334,-1.3331,-1.3352,-1.3343,-1.3345,-1.3356,-1.3377,-1.3379,-1.3381,-1.3398,-1.3402,-1.3406,0,0,0,0,0,0,-1.3332,-1.3331,-1.3325,-1.3343,-1.3345,-1.3345,-1.3354,-1.3348,-1.3353,-1.3351,-1.3343,-1.3344,-1.3359,-1.3359,-1.3349,-1.3376,-1.3363,-1.3365,-1.3375,-1.3379,-1.3382,-1.3382,-1.3333,0,0,0,0,0,-1.3338,-1.3346,-1.3345,-1.336,-1.3362,-1.3358,-1.3362,-1.3358,-1.336,-1.3361,-1.336,-1.3363,-1.337,-1.3375,-1.3381,-1.34,-1.34,-1.3409,-1.3412,-1.3415,-1.3417,-1.3426,-1.343,-1.3388,-1.3388,-1.3388,0,0,-1.335,-1.335,-1.3356,-1.3364,-1.3365,-1.3374,-1.3359,-1.3369,-1.3375,-1.3362,-1.3375,-1.3375,-1.3378,-1.3394,-1.3401,-1.3395,-1.3428,-1.3417,-1.3419,-1.342,-1.3429,-1.3433,-1.3436,-1.3389,-1.3389,-1.3389,0,0,-1.3376,-1.3378,-1.3391,-1.3393,-1.3395,-1.3393,-1.3396,-1.3397,-1.3396,-1.3409,-1.34,-1.3407,-1.342,-1.3422,-1.3424,-1.3452,-1.3444,-1.3455,-1.3471,-1.348,-1.3484,-1.3487,-1.3496,-1.35,-1.3457,-1.3457,-1.3457,0,-1.3391,-1.3404,-1.3398,-1.3409,-1.3412,-1.3401,-1.3414,-1.3416,-1.3421,-1.3424,-1.3416,-1.3432,-1.3433,-1.3449,-1.3456,-1.3459,-1.3462,-1.3454,-1.3484,-1.3487,-1.3489,-1.3498,-1.3502,-1.3458,-1.3458,-1.3458,-1.3458,0,-1.3422,-1.3431,-1.3441,-1.3446,-1.345,-1.3462,-1.3458,-1.3464,-1.3459,-1.3457,-1.347,-1.3471,-1.3478,-1.3481,-1.3477,-1.3498,-1.3493,-1.3485,-1.3472,-1.3495,-1.3503,-1.3506,-1.346,-1.3459,-1.3459,-1.3459,0,0,-1.3458,-1.346,-1.3464,-1.3466,-1.3469,-1.3475,-1.3487,-1.3493,-1.3498,-1.3502,-1.3511,-1.3522,-1.3514,-1.3517,-1.3513,-1.3522,-1.3543,-1.3512,-1.3512,-1.3517,-1.3566,-1.3571,-1.3575,-1.3538,-1.3539,-1.3539,-1.3565,0,-1.3484,-1.3503,-1.3499,-1.3518,-1.3526,-1.3516,-1.3526,-1.3529,-1.3527,-1.3534,-1.3533,-1.3541,-1.353,-1.3532,-1.354,-1.3539,-1.3553,-1.3537,-1.3546,-1.3547,-1.3545,-1.358,-1.3586,-1.361,-1.3568,-1.3569,-1.3569,0,-1.3516,-1.3521,-1.3541,-1.3543,-1.3546,-1.3555,-1.356,-1.3567,-1.357,-1.3568,-1.3572,-1.3566,-1.3577,-1.3564,-1.3579,-1.3569,-1.3572,-1.3573,-1.3573,-1.3573,-1.3559,-1.358,-1.3617,-1.3621,-1.3574,-1.3574,-1.3574,0,-1.354,-1.3552,-1.3566,-1.3568,-1.357,-1.3576,-1.3577,-1.358,-1.3584,-1.3589,-1.3591,-1.3597,-1.3601,-1.3606,-1.3601,-1.3593,-1.3617,-1.3604,-1.3616,-1.3616,-1.362,-1.362,-1.3658,-1.3624,-1.3624,-1.3624,-1.3624,0,-1.3569,-1.3581,-1.3577,-1.3585,-1.3599,-1.3593,-1.3607,-1.3607,-1.3609,-1.3617,-1.3609,-1.3617,-1.3611,-1.3618,-1.3615,-1.3628,-1.3629,-1.3628,-1.3627,-1.3629,-1.3629,-1.363,-1.3628,-1.3625,-1.3625,-1.3625,-1.3624,0,-1.3598,-1.3595,-1.3609,-1.361,-1.3611,-1.3621,-1.3621,-1.3629,-1.3627,-1.3637,-1.364,-1.3637,-1.3645,-1.3642,-1.365,-1.3648,-1.3664,-1.3661,-1.3663,-1.3662,-1.3674,-1.3673,-1.3714,-1.3719,-1.3682,-1.3683,-1.3683,0,-1.3616,-1.3625,-1.3627,-1.3632,-1.3634,-1.3642,-1.3646,-1.3641,-1.3646,-1.365,-1.3657,-1.3665,-1.367,-1.3684,-1.3682,-1.3689,-1.3686,-1.37,-1.3686,-1.3687,-1.3685,-1.3684,-1.3685,-1.3702,-1.3702,-1.3703,-1.3703,0,-1.3648,-1.3647,-1.3653,-1.366,-1.3665,-1.367,-1.3673,-1.3678,-1.3673,-1.3679,-1.3687,-1.3692,-1.37,-1.3708,-1.3714,-1.3714,-1.3708,-1.3707,-1.371,-1.3711,-1.3712,-1.3711,-1.367,-1.3706,-1.3706,-1.3706,-1.3705,-1.3705,-1.3672,-1.368,-1.3682,-1.369,-1.3693,-1.3697,-1.3704,-1.3703,-1.371,-1.3717,-1.3714,-1.3723,-1.3726,-1.3733,-1.3735,-1.3742,-1.3736,-1.3741,-1.3742,-1.3743,-1.3744,-1.3712,-1.3743,-1.3743,-1.3743,-1.3743,-1.3743,0,-1.3703,-1.3705,-1.3712,-1.3718,-1.3724,-1.3718,-1.3722,-1.3727,-1.3735,-1.3739,-1.3744,-1.3754,-1.3761,-1.3761,-1.3767,-1.3773,-1.377,-1.3775,-1.3774,-1.3774,-1.3749,-1.3745,-1.3777,-1.3777,-1.3777,-1.3777,-1.3777,-1.3777,-1.372,-1.3733,-1.3732,-1.3746,-1.3747,-1.3756,-1.3759,-1.3763,-1.3765,-1.3776,-1.3782,-1.3782,-1.3784,-1.379,-1.3797,-1.3796,-1.3799,-1.3805,-1.3803,-1.3779,-1.3776,-1.3773,-1.3769,-1.3805,-1.3805,-1.3828,-1.3828,-1.3828]}]]